Precipitable_Water
1.12 1.17 1.14 1.16 1.19 1.20 1.17 1.18 1.18 1.10 1.04 1.01 1.03 0.96 0.89 0.82 0.81 0.86 0.88 0.82 0.86 0.87
1.05 1.12 1.14 1.19 1.14 1.16 1.18 1.22 1.18 1.13 1.10 1.05 1.00 0.96 0.92 0.88 0.85 0.87 0.93 0.94 0.95 0.98
1.08 1.09 1.09 1.09 1.12 1.08 1.06 1.10 1.05 1.04 1.04 0.99 0.96 0.94 0.91 0.90 0.96 0.98 1.00 1.03 0.97 0.90
1.09 1.08 1.15 1.11 1.06 1.11 1.07 1.15 1.08 1.08 1.01 1.02 0.99 0.97 1.00 1.01 1.04 1.03 0.96 0.87 0.78 0.69
1.13 1.10 1.09 1.06 1.08 1.08 1.02 1.02 0.98 0.97 0.95 1.02 1.04 1.06 1.04 1.02 0.97 0.85 0.74 0.71 0.67 0.63
1.09 1.13 1.13 1.08 1.06 1.04 1.00 0.97 0.99 1.02 1.03 1.06 1.07 1.05 1.03 0.94 0.80 0.73 0.69 0.65 0.61 0.57
1.07 1.07 1.04 1.11 1.07 1.04 1.09 1.08 1.08 1.08 1.06 1.06 1.03 0.98 0.87 0.79 0.74 0.68 0.63 0.60 0.56 0.55
1.08 1.08 1.09 1.10 1.10 1.12 1.09 1.08 1.08 1.03 0.97 0.92 0.88 0.85 0.79 0.73 0.67 0.62 0.57 0.55 0.56 0.58
1.01 1.02 1.03 1.03 1.03 1.03 1.00 0.96 0.92 0.89 0.85 0.81 0.80 0.76 0.72 0.66 0.62 0.57 0.55 0.55 0.57 0.59
0.86 0.86 0.87 0.87 0.86 0.86 0.86 0.87 0.85 0.84 0.82 0.79 0.75 0.71 0.68 0.62 0.57 0.57 0.58 0.59 0.60 0.62
0.71 0.71 0.74 0.75 0.75 0.76 0.76 0.75 0.74 0.73 0.71 0.68 0.66 0.65 0.61 0.62 0.62 0.63 0.64 0.64 0.65 0.63
0.70 0.69 0.70 0.70 0.71 0.71 0.71 0.71 0.70 0.70 0.70 0.68 0.65 0.65 0.66 0.68 0.67 0.67 0.66 0.67 0.66 0.62
0.76 0.75 0.74 0.75 0.75 0.76 0.76 0.74 0.74 0.72 0.69 0.66 0.65 0.68 0.69 0.69 0.67 0.65 0.66 0.67 0.62 0.60
0.73 0.74 0.74 0.74 0.74 0.74 0.73 0.72 0.69 0.66 0.66 0.66 0.66 0.67 0.68 0.71 0.71 0.68 0.66 0.64 0.57 0.53
Wind_Speed
25 24 22 22 24 23 25 26 26 27 28 30 27 28 28 28 27 27 27 28 30 29
26 26 26 27 27 25 24 26 27 26 26 26 27 28 28 29 27 27 28 28 28 28
27 25 26 26 27 27 27 27 27 26 27 27 27 28 27 27 29 29 29 28 28 27
25 25 25 26 26 27 27 28 28 28 28 28 27 27 28 28 29 28 28 27 27 26
24 25 25 25 24 25 26 26 27 27 26 27 28 28 29 28 28 27 27 27 27 27
23 24 25 26 26 25 24 25 25 27 28 28 28 27 27 27 27 28 28 28 28 28
22 23 26 27 27 27 26 26 26 27 26 26 27 28 28 28 28 28 29 29 29 30
19 20 21 22 23 24 26 27 27 27 28 28 28 28 28 28 29 29 29 29 29 30
15 16 17 19 21 23 24 25 26 27 27 27 27 28 28 28 28 28 28 28 29 30
13 15 16 17 18 19 21 22 23 24 25 25 26 26 26 26 27 27 28 29 30 32
13 14 15 16 17 19 20 21 22 23 23 24 24 25 26 27 27 28 30 31 32 33
14 15 15 16 18 19 19 20 21 23 23 24 25 26 27 28 29 30 31 33 34 35
19 18 19 19 20 21 21 22 23 23 24 25 26 27 28 29 30 32 34 35 35 35
19 20 20 20 21 22 23 24 24 24 25 26 27 27 29 31 33 34 34 35 35 35
Wind_Direction
225 224 223 221 218 229 236 235 239 242 243 248 246 247 252 257 265 264 268 269 270 272
229 232 234 229 234 233 240 241 243 245 244 246 248 249 257 260 262 265 269 269 271 273
231 233 232 235 234 242 243 240 244 246 248 252 254 255 256 258 264 267 270 270 271 272
231 232 236 236 241 242 243 244 245 248 251 252 253 255 258 260 264 266 269 269 269 269
233 235 237 238 241 243 244 244 248 248 249 254 256 258 260 261 264 265 267 268 269 270
235 235 237 244 242 243 244 245 248 250 256 257 258 257 258 261 262 266 267 269 269 271
239 241 242 242 245 245 247 249 251 252 256 255 256 258 259 261 264 266 268 268 270 273
242 243 242 243 246 242 249 249 251 254 256 257 258 258 260 262 264 266 268 269 271 273
242 242 244 246 247 247 250 251 252 253 256 257 258 259 259 261 264 266 267 270 273 276
249 247 248 248 249 251 252 253 253 254 256 257 259 260 261 262 265 267 270 273 275 278
256 255 254 255 255 255 256 255 256 257 258 260 262 263 264 265 268 270 272 275 278 280
263 262 261 260 259 260 259 260 262 262 263 264 266 267 268 269 271 273 275 278 280 282
266 265 265 266 266 267 267 267 267 268 268 269 270 270 271 272 274 276 278 281 282 283
267 268 269 269 270 269 269 269 270 271 271 272 273 274 275 276 278 279 281 282 282 283